Overview Statistics Trail Chart Weather Telemetry Raw packets
 

This is the latest recevied weather packets stored in our database for station/object W4UWO. If no packets are shown the sender has not sent any weather packets the latest 10 day(s).

<< 33 34 35 36 37 38 39 >>
Time Temp. Humidity Pressure Rain* Wind** Luminosity Snow
1788394737 33.33° C 52% 1017.4 hPa 0 mm - 2 W/m² -
1788394432 33.89° C 50% 1017.6 hPa 0 mm - 4 W/m² -
1788394131 33.89° C 48% 1017.4 hPa 0 mm - 6 W/m² -
1788393827 34.44° C 46% 1017.6 hPa 0 mm - 10 W/m² -
1788393525 35° C 46% 1017.3 hPa 0 mm - 14 W/m² -
1788393220 35° C 44% 1017.3 hPa 0 mm - 18 W/m² -
1788392920 35.56° C 44% 1017.5 hPa 0 mm - 23 W/m² -
1788392614 35.56° C 42% 1017.4 hPa 0 mm - 28 W/m² -
1788392313 36.11° C 42% 1017.5 hPa 0 mm - 33 W/m² -
1788392013 36.67° C 41% 1017.5 hPa 0 mm - 38 W/m² -
1788391712 36.67° C 41% 1017.6 hPa 0 mm - 44 W/m² -
1788391407 36.11° C 42% 1017.7 hPa 0 mm - 51 W/m² -
1788391106 36.11° C 42% 1017.4 hPa 0 mm - 60 W/m² -
1788390801 36.11° C 42% 1017.4 hPa 0 mm - 68 W/m² -
1788390497 36.11° C 41% 1017.5 hPa 0 mm - 74 W/m² -
1788390196 36.67° C 38% 1017.3 hPa 0 mm - 86 W/m² -
1788389890 37.22° C 38% 1017.6 hPa 0 mm - 99 W/m² -
1788389586 37.22° C 37% 1017.5 hPa 0 mm - 120 W/m² -
1788389284 36.67° C 37% 1017.5 hPa 0 mm - 131 W/m² -
1788388979 37.22° C 36% 1017.5 hPa 0 mm - 144 W/m² -
1788388676 37.22° C 37% 1017.5 hPa 0 mm - 159 W/m² -
1788388375 37.22° C 37% 1017.4 hPa 0 mm - 173 W/m² -
1788388075 36.67° C 38% 1017.5 hPa 0 mm - 188 W/m² -
1788387775 37.22° C 38% 1017.6 hPa 0 mm - 205 W/m² -
1788387474 37.78° C 37% 1017.7 hPa 0 mm - 222 W/m² -

* Rain latest hour (hover to see other rain measurements)
** Current wind speed in m/s (hover to see current wind gust speed)